User: anonymous   Login
Location: Unspecified
(0.0000°N, 0.0000°E)
Time: 22:29:21
(UTC+00:00)
Language:

STARLINK-31472 - Orbit

View from above orbital plane
View from above orbital plane
View from above satellite
View from above satellite

Ground track
Ground track

The orbit is defined by the following mean orbital elements,

1 59730U          26145.27861662 +.00000000 +00000-0 +95367-5 0 00008
2 59730  43.0028 110.9407 0000702 271.6400  88.4372 15.27575230    03
Epoch (UTC): 25 May 2026 06:41:12
Eccentricity: 0.0000702
inclination: 43.0028°
perigee height: 483 km
apogee height: 484 km
right ascension of ascending node: 110.9407°
argument of perigee: 271.6400°
revolutions per day: 15.27575230
mean anomaly at epoch: 88.4372°

The dashed part of the orbit path shows where the satellite is in the earth's shadow,  

DLR